Soldotna, AK

2:53 AM AKDT on June 24, 2017 (GMT -0800)
Soldotna

Weather History for PASX - September, 2012

Change the Weather History Date:

Monday, September 10, 2012

  Actual Average Record
Temperature  
Mean Temperature 40 °F -  
Max Temperature 55 °F 57 °F 67 °F (1979)
Min Temperature 26 °F 38 °F 21 °F (1970)
Degree Days  
Heating Degree Days 24    
Moisture  
Dew Point 30 °F    
Average Humidity 67    
Maximum Humidity 93    
Minimum Humidity 36    
Precipitation  
Precipitation 0.00 in - - ()
Sea Level Pressure  
Sea Level Pressure 29.84 in    
Wind  
Wind Speed 2 mph (NE)    
Max Wind Speed 8 mph    
Max Gust Speed -    
Visibility 10 miles    
Events      
Averages and records for this station are not official NWS values.
T = Trace of Precipitation, MM = Missing Value Source: NWS Daily Summary

Daily Weather History Graph

Daily Weather History Graph

Search for Another Location

Airport or City:

Trip Planner

Search our weather history database for the weather conditions in past years. The results will help you decide how hot, cold, wet, or windy it might be!

Date:

Astronomy

Sep. 10, 2012 Rise Set
Actual Time 7:21 AM AKDT 8:38 PM AKDT
Civil Twilight 6:37 AM AKDT 9:22 PM AKDT
Nautical Twilight 5:42 AM AKDT 10:16 PM AKDT
Astronomical Twilight 4:38 AM AKDT 11:19 PM AKDT
Moon 12:39 AM AKDT (9/10) 6:19 PM AKDT (9/10)
Length of Visible Light 14h 44m
Length of Day
13h 17m
Waning Crescent, 29% of the Moon is Illuminated
Sep 10
Waning Crescent
Sep 15
New
Sep 22
First Quarter
Sep 29
Full
Oct 7
Last Quarter

Hourly Weather History & Observations

Time (AKDT) Temp. Windchill Dew Point Humidity Pressure Visibility Wind Dir Wind Speed Gust Speed Precip Events Conditions
12:16 AM 42.8 °F - 32.0 °F 66% 29.82 in 10.0 mi Calm Calm - N/A   Clear
12:36 AM 42.8 °F - 30.2 °F 61% 29.82 in 10.0 mi Calm Calm - N/A   Clear
12:56 AM 37.4 °F 34.9 °F 30.2 °F 75% 29.83 in 10.0 mi SSE 3.5 mph - N/A   Clear
1:16 AM 37.4 °F 33.8 °F 30.2 °F 75% 29.83 in 10.0 mi SSE 4.6 mph - N/A   Clear
1:36 AM 35.6 °F - 30.2 °F 81% 29.84 in 10.0 mi Calm Calm - N/A   Clear
1:56 AM 35.6 °F - 30.2 °F 81% 29.85 in 10.0 mi Calm Calm - N/A   Clear
2:16 AM 35.6 °F - 30.2 °F 81% 29.85 in - Calm Calm - N/A   Clear
2:36 AM 32.0 °F - 28.4 °F 87% 29.86 in - Calm Calm - N/A   Unknown
2:56 AM 30.2 °F - 26.6 °F 86% 29.86 in - Calm Calm - N/A   Unknown
3:16 AM 30.2 °F - 26.6 °F 86% 29.86 in 10.0 mi Calm Calm - N/A   Clear
3:36 AM 30.2 °F - 28.4 °F 93% 29.86 in 10.0 mi Calm Calm - N/A   Clear
3:56 AM 28.4 °F - 26.6 °F 93% 29.86 in 10.0 mi Calm Calm - N/A   Clear
4:16 AM 30.2 °F - 26.6 °F 86% 29.86 in 10.0 mi Calm Calm - N/A   Clear
4:36 AM 28.4 °F - 26.6 °F 93% 29.86 in - Calm Calm - N/A   Unknown
4:56 AM 28.4 °F 24.6 °F 24.8 °F 86% 29.85 in - ESE 3.5 mph - N/A   Unknown
5:16 AM 28.4 °F 24.6 °F 26.6 °F 93% 29.86 in 10.0 mi East 3.5 mph - N/A   Clear
5:36 AM 30.2 °F 26.7 °F 26.6 °F 86% 29.86 in 10.0 mi East 3.5 mph - N/A   Clear
5:56 AM 30.2 °F - 26.6 °F 86% 29.87 in 10.0 mi Calm Calm - N/A   Clear
6:16 AM 28.4 °F 23.3 °F 26.6 °F 93% 29.87 in 10.0 mi East 4.6 mph - N/A   Clear
6:36 AM 26.6 °F - 24.8 °F 93% 29.87 in 10.0 mi Calm Calm - N/A   Clear
6:56 AM 28.4 °F 23.3 °F 26.6 °F 93% 29.87 in 10.0 mi East 4.6 mph - N/A   Clear
7:16 AM 28.4 °F 23.3 °F 26.6 °F 93% 29.87 in 10.0 mi East 4.6 mph - N/A   Clear
7:36 AM 28.4 °F 23.3 °F 26.6 °F 93% 29.87 in 10.0 mi East 4.6 mph - N/A   Clear
7:56 AM 28.4 °F 22.2 °F 26.6 °F 93% 29.87 in 10.0 mi East 5.8 mph - N/A   Clear
8:16 AM 30.2 °F 25.4 °F 26.6 °F 86% 29.88 in 10.0 mi ENE 4.6 mph - N/A   Clear
8:36 AM 30.2 °F 25.4 °F 26.6 °F 86% 29.87 in 10.0 mi East 4.6 mph - N/A   Clear
8:56 AM 32.0 °F 27.5 °F 28.4 °F 87% 29.87 in 10.0 mi East 4.6 mph - N/A   Clear
9:16 AM 33.8 °F 30.8 °F 28.4 °F 81% 29.87 in 10.0 mi East 3.5 mph - N/A   Clear
9:36 AM 35.6 °F - 30.2 °F 81% 29.87 in 10.0 mi Calm Calm - N/A   Clear
9:56 AM 37.4 °F - 32.0 °F 81% 29.87 in 10.0 mi Calm Calm - N/A   Clear
10:16 AM 41.0 °F 39.0 °F 33.8 °F 76% 29.88 in 10.0 mi East 3.5 mph - N/A   Clear
10:36 AM 44.6 °F 41.4 °F 32.0 °F 61% 29.87 in 10.0 mi East 5.8 mph - N/A   Clear
10:56 AM 46.4 °F 42.4 °F 32.0 °F 57% 29.88 in 10.0 mi ESE 8.1 mph - N/A   Clear
11:16 AM 46.4 °F 42.9 °F 30.2 °F 53% 29.88 in 10.0 mi East 6.9 mph - N/A   Clear
11:36 AM 46.4 °F 44.3 °F 30.2 °F 53% 29.87 in 10.0 mi ESE 4.6 mph - N/A   Clear
11:56 AM 48.2 °F - 30.2 °F 50% 29.87 in 10.0 mi NNE 4.6 mph - N/A   Clear
12:16 PM 48.2 °F - 32.0 °F 54% 29.87 in 10.0 mi ESE 5.8 mph - N/A   Clear
12:36 PM 50.0 °F - 32.0 °F 50% 29.87 in 10.0 mi Calm Calm - N/A   Clear
12:56 PM 50.0 °F - 30.2 °F 47% 29.87 in 10.0 mi Calm Calm - N/A   Clear
1:16 PM 51.8 °F - 32.0 °F 47% 29.86 in 10.0 mi NNE 5.8 mph - N/A   Clear
1:36 PM 51.8 °F - 32.0 °F 47% 29.86 in 10.0 mi North 3.5 mph - N/A   Clear
1:56 PM 51.8 °F - 30.2 °F 44% 29.86 in 10.0 mi North 5.8 mph - N/A   Clear
2:16 PM 51.8 °F - 30.2 °F 44% 29.85 in 10.0 mi NE 4.6 mph - N/A   Clear
2:36 PM 53.6 °F - 30.2 °F 41% 29.85 in 10.0 mi North 5.8 mph - N/A   Clear
2:56 PM 53.6 °F - 30.2 °F 41% 29.84 in 10.0 mi North 8.1 mph - N/A   Clear
3:16 PM 53.6 °F - 28.4 °F 38% 29.84 in 10.0 mi North 4.6 mph - N/A   Clear
3:36 PM 55.4 °F - 30.2 °F 38% 29.83 in 10.0 mi NNE 6.9 mph - N/A   Clear
3:56 PM 55.4 °F - 28.4 °F 36% 29.82 in 10.0 mi North 6.9 mph - N/A   Clear
4:16 PM 55.4 °F - 30.2 °F 38% 29.81 in 10.0 mi North 3.5 mph - N/A   Clear
4:36 PM 55.4 °F - 30.2 °F 38% 29.81 in 10.0 mi North 8.1 mph - N/A   Clear
4:56 PM 55.4 °F - 28.4 °F 36% 29.81 in 10.0 mi NNE 4.6 mph - N/A   Clear
5:16 PM 55.4 °F - 30.2 °F 38% 29.81 in 10.0 mi NNE 6.9 mph - N/A   Clear
5:36 PM 55.4 °F - 28.4 °F 36% 29.81 in 10.0 mi North 5.8 mph - N/A   Clear
5:56 PM 55.4 °F - 28.4 °F 36% 29.80 in 10.0 mi North 4.6 mph - N/A   Clear
6:16 PM 55.4 °F - 30.2 °F 38% 29.80 in 10.0 mi NNE 5.8 mph - N/A   Clear
6:36 PM 55.4 °F - 30.2 °F 38% 29.80 in 10.0 mi North 4.6 mph - N/A   Clear
6:56 PM 53.6 °F - 30.2 °F 41% 29.80 in 10.0 mi North 4.6 mph - N/A   Clear
7:16 PM 53.6 °F - 32.0 °F 44% 29.79 in 10.0 mi North 3.5 mph - N/A   Clear
7:36 PM 53.6 °F - 32.0 °F 44% 29.79 in 10.0 mi Calm Calm - N/A   Clear
7:56 PM 51.8 °F - 32.0 °F 47% 29.79 in 10.0 mi Calm Calm - N/A   Clear
8:16 PM 46.4 °F - 35.6 °F 66% 29.79 in 10.0 mi Calm Calm - N/A   Clear
8:36 PM 44.6 °F - 35.6 °F 71% 29.79 in 10.0 mi Calm Calm - N/A   Clear
8:56 PM 44.6 °F - 33.8 °F 66% 29.80 in 10.0 mi Calm Calm - N/A   Clear
9:16 PM 42.8 °F - 33.8 °F 70% 29.80 in 10.0 mi Calm Calm - N/A   Clear
9:36 PM 41.0 °F - 35.6 °F 81% 29.80 in 10.0 mi Calm Calm - N/A   Clear
9:56 PM 39.2 °F - 33.8 °F 81% 29.80 in 10.0 mi Calm Calm - N/A   Clear
10:16 PM 39.2 °F - 33.8 °F 81% 29.80 in 10.0 mi Calm Calm - N/A   Clear
10:36 PM 39.2 °F - 32.0 °F 75% 29.80 in 10.0 mi Calm Calm - N/A   Clear
10:56 PM 37.4 °F 34.9 °F 32.0 °F 81% 29.81 in 10.0 mi ENE 3.5 mph - N/A   Clear
11:16 PM 37.4 °F - 32.0 °F 81% 29.81 in 10.0 mi Calm Calm - N/A   Clear
11:36 PM 35.6 °F - 30.2 °F 81% 29.81 in 10.0 mi Calm Calm - N/A   Clear
11:56 PM 35.6 °F - 30.2 °F 81% 29.81 in - Calm Calm - N/A   Clear